Weather History for KHIF - December, 2013

Change the Weather History Date:

Friday, December 13, 2013

  Actual Average Record
Temperature  
Mean Temperature 14 °F -  
Max Temperature 20 °F 34 °F 49 °F (2010)
Min Temperature 8 °F 21 °F 6 °F (1979)
Degree Days  
Heating Degree Days 51    
Moisture  
Dew Point 10 °F    
Average Humidity 83    
Maximum Humidity 86    
Minimum Humidity 79    
Precipitation  
Precipitation 0.00 in - - ()
Snow  
Snow 0.00 in - - ()
Snow Depth 5.00 in    
Sea Level Pressure  
Sea Level Pressure 30.32 in    
Wind  
Wind Speed 3 mph (NE)    
Max Wind Speed 10 mph    
Max Gust Speed -    
Visibility 4 miles    
Events Fog    
Averages and records for this station are not official NWS values.
T = Trace of Precipitation, MM = Missing Value Source: NWS Daily Summary

Daily Weather History Graph

Daily Weather History Graph

Search for Another Location

Airport or City:

Trip Planner

Search our weather history database for the weather conditions in past years. The results will help you decide how hot, cold, wet, or windy it might be!

Date:

Astronomy

Dec. 13, 2013 Rise Set
Actual Time 7:44 AM MST 4:59 PM MST
Civil Twilight 7:13 AM MST 5:30 PM MST
Nautical Twilight 6:39 AM MST 6:05 PM MST
Astronomical Twilight 6:05 AM MST 6:38 PM MST
Moon 2:46 PM MST (12/13) 4:09 AM MST (12/13)
Length of Visible Light 10h 17m
Length of Day
9h 14m
Waxing Gibbous, 88% of the Moon is Illuminated
Dec 13
Waxing Gibbous
Dec 17
Full
Dec 25
Last Quarter
Jan 1
New
Jan 7
First Quarter

Hourly Weather History & Observations

Time (MST) Temp. Windchill Dew Point Humidity Pressure Visibility Wind Dir Wind Speed Gust Speed Precip Events Conditions
12:58 AM 10.0 °F 1.8 °F 5.4 °F 81% 30.30 in 10.0 mi ESE 4.6 mph - N/A   Clear
1:58 AM 9.9 °F 0.2 °F 4.8 °F 80% 30.31 in 10.0 mi ESE 5.8 mph - N/A   Clear
2:58 AM 10.6 °F -3.1 °F 5.5 °F 80% 30.31 in 10.0 mi ESE 10.4 mph - N/A   Clear
3:58 AM 10.8 °F 4.5 °F 6.1 °F 81% 30.32 in 10.0 mi East 3.5 mph - N/A   Clear
4:26 AM 8.6 °F - 5.0 °F 85% 30.17 in 10.0 mi NNE 1.2 mph - N/A   Partly Cloudy
4:41 AM 10.4 °F 4.0 °F 5.0 °F 79% 30.17 in 8.0 mi West 3.5 mph - N/A   Scattered Clouds
4:58 AM 10.0 °F - 5.9 °F 83% 30.34 in 6.0 mi NW 2.3 mph - N/A   Haze
5:08 AM 10.4 °F - 6.8 °F 85% 30.18 in 4.0 mi Calm Calm - N/A   Clear
5:13 AM 12.2 °F 6.1 °F 8.6 °F 85% 30.17 in 2.5 mi East 3.5 mph - N/A   Clear
5:23 AM 10.4 °F 0.8 °F 6.8 °F 85% 30.17 in 4.0 mi ESE 5.8 mph - N/A   Haze
5:28 AM 10.4 °F - 5.0 °F 79% 30.17 in 7.0 mi ESE 2.3 mph - N/A   Clear
5:38 AM 10.4 °F - 5.0 °F 79% 30.17 in 4.0 mi SSE 1.2 mph - N/A   Haze
5:43 AM 10.4 °F - 6.8 °F 85% 30.17 in 1.2 mi South 2.3 mph - N/A   Haze
5:48 AM 10.4 °F 4.0 °F 6.8 °F 85% 30.17 in 0.8 mi SSE 3.5 mph - N/A   Clear
5:53 AM 10.4 °F 4.0 °F 6.8 °F 85% 30.17 in 1.0 mi SSE 3.5 mph - N/A   Clear
5:58 AM 12.2 °F - 6.8 °F 79% 30.33 in 1.0 mi SSE 2.3 mph - N/A   Mist
6:17 AM 12.2 °F 4.3 °F 8.6 °F 85% 30.18 in 1.5 mi WNW 4.6 mph - N/A   Partly Cloudy
6:27 AM 12.2 °F 6.1 °F 8.6 °F 85% 30.18 in 2.0 mi NE 3.5 mph - N/A   Haze
6:39 AM 10.4 °F -0.4 °F 6.8 °F 85% 30.17 in 4.0 mi ESE 6.9 mph - N/A   Haze
6:58 AM 11.1 °F 4.9 °F 6.4 °F 81% 30.34 in 6.0 mi SSE 3.5 mph - N/A   Haze
7:50 AM 8.6 °F - 5.0 °F 85% 30.18 in 6.0 mi Calm Calm - N/A   Mostly Cloudy
7:58 AM 9.3 °F - 4.6 °F 81% 30.35 in 6.0 mi Calm Calm - N/A   Mostly Cloudy
8:27 AM 10.4 °F - 6.8 °F 85% 30.19 in 6.0 mi Variable 1.2 mph - N/A   Mostly Cloudy
8:53 AM 14.0 °F - 8.6 °F 79% 30.20 in 1.0 mi WSW 1.2 mph - N/A   Mostly Cloudy
8:58 AM 13.5 °F - 8.8 °F 82% 30.36 in 1.0 mi WSW 2.3 mph - N/A   Mostly Cloudy
9:03 AM 14.0 °F - 10.4 °F 86% 30.21 in 0.5 mi Calm Calm - N/A   Haze
9:08 AM 14.0 °F - 10.4 °F 86% 30.21 in 0.2 mi Calm Calm - N/A   Haze
9:17 AM 15.8 °F - 10.4 °F 79% 30.21 in 0.8 mi Calm Calm - N/A   Haze
9:41 AM 15.8 °F 10.2 °F 10.4 °F 79% 30.22 in 0.5 mi NNW 3.5 mph - N/A   Haze
9:58 AM 15.3 °F - 10.9 °F 83% 30.39 in 0.8 mi ENE 2.3 mph - N/A   Haze
10:19 AM 15.8 °F - 12.2 °F 86% 30.23 in 0.2 mi Calm Calm - N/A Fog Light Freezing Fog
10:38 AM 15.8 °F - 12.2 °F 86% 30.23 in 0.8 mi WNW 1.2 mph - N/A   Overcast
10:58 AM 17.6 °F - 14.0 °F 86% 30.39 in 2.0 mi Calm Calm - N/A   Mostly Cloudy
11:18 AM 17.6 °F - 12.2 °F 79% 30.25 in 3.0 mi WSW 2.3 mph - N/A   Mostly Cloudy
11:43 AM 17.6 °F 12.3 °F 14.0 °F 86% 30.26 in 2.0 mi NW 3.5 mph - N/A   Overcast
11:58 AM 18.3 °F 13.1 °F 14.2 °F 84% 30.41 in 2.0 mi NW 3.5 mph - N/A   Overcast
12:58 PM 19.8 °F - 14.9 °F 81% 30.40 in 2.0 mi NW 2.3 mph - N/A   Haze
1:58 PM 20.1 °F 15.2 °F 15.6 °F 83% 30.42 in 2.0 mi West 3.5 mph - N/A   Overcast
2:58 PM 20.3 °F - 14.9 °F 80% 30.43 in 2.5 mi WSW 2.3 mph - N/A   Overcast
3:58 PM 20.5 °F 15.6 °F 15.6 °F 81% 30.45 in 2.0 mi West 3.5 mph - N/A   Overcast
4:58 PM 20.3 °F - 15.4 °F 81% 30.45 in 5.0 mi SW 1.2 mph - N/A   Haze
5:58 PM 20.5 °F - 15.3 °F 80% 30.47 in 8.0 mi NW 2.3 mph - N/A   Overcast
6:18 PM 19.4 °F - 14.0 °F 80% 30.33 in 6.0 mi NW 2.3 mph - N/A   Haze
6:38 PM 17.6 °F - 14.0 °F 86% 30.35 in 5.0 mi NW 2.3 mph - N/A   Haze
6:58 PM 19.4 °F 14.3 °F 14.9 °F 83% 30.51 in 5.0 mi North 3.5 mph - N/A   Haze
7:53 PM 19.4 °F 9.5 °F 15.8 °F 86% 30.39 in 4.0 mi NW 8.1 mph - N/A   Haze
7:58 PM 19.6 °F 10.6 °F 14.9 °F 82% 30.55 in 4.0 mi NNW 6.9 mph - N/A   Haze
8:03 PM 19.4 °F 12.8 °F 15.8 °F 86% 30.39 in 4.0 mi North 4.6 mph - N/A   Haze
8:28 PM 19.4 °F - 14.0 °F 80% 30.40 in 4.0 mi North 2.3 mph - N/A   Haze
8:43 PM 19.4 °F - 14.0 °F 80% 30.40 in 4.0 mi NNE 1.2 mph - N/A   Haze
8:58 PM 18.5 °F - 14.2 °F 83% 30.54 in 4.0 mi Calm Calm - N/A   Haze
9:28 PM 15.8 °F - 12.2 °F 86% 30.41 in 3.0 mi SE 2.3 mph - N/A   Overcast
9:58 PM 17.2 °F - 13.1 °F 84% 30.56 in 4.0 mi SE 2.3 mph - N/A   Haze
10:03 PM 17.6 °F 10.7 °F 14.0 °F 86% 30.41 in 4.0 mi East 4.6 mph - N/A   Haze
10:28 PM 17.6 °F - 14.0 °F 86% 30.41 in 5.0 mi East 2.3 mph - N/A   Haze
10:58 PM 16.3 °F - 12.0 °F 83% 30.58 in 7.0 mi SE 2.3 mph - N/A   Partly Cloudy
11:58 PM 14.5 °F 8.8 °F 9.7 °F 81% 30.60 in 6.0 mi South 3.5 mph - N/A   Haze